• In Germany
  • List of Countries
  • For 7 days
  • Water Temperature
  • Satellite Maps
  • Weather Map
  • Weather Widgets
  • user-avatar
    Login

    Hourly Weather Mbuji-Mayi

    Today, 21 May, Monday

    Time Temperature Precipitation Wind Pressure Humidity
    00:00 +24°C° 0 mm 1 mps 707 mmHg 82%
    01:00 +24°C° 0 mm 1 mps 707 mmHg 84%
    02:00 +23°C° 0 mm 1 mps 707 mmHg 87%
    03:00 +23°C° 0 mm 1 mps 707 mmHg 89%
    04:00 +22°C° 0 mm 1 mps 707 mmHg 92%
    05:00 +22°C° 0 mm 1 mps 706 mmHg 94%
    06:00 +23°C° 0 mm 1 mps 707 mmHg 88%
    07:00 +24°C° 0 mm 1 mps 707 mmHg 83%
    08:00 +26°C° 0 mm 1 mps 708 mmHg 74%
    09:00 +29°C° 0 mm 1 mps 708 mmHg 63%
    10:00 +32°C° 0 mm 1 mps 708 mmHg 52%
    11:00 +34°C° 0 mm 1 mps 708 mmHg 42%
    12:00 +36°C° 0 mm 1 mps 708 mmHg 37%
    13:00 +39°C° 0 mm 1 mps 707 mmHg 32%
    14:00 +38°C° 0 mm 0 mps 707 mmHg 28%
    15:00 +40°C° 0 mm 1 mps 706 mmHg 28%
    16:00 +39°C° 0 mm 1 mps 706 mmHg 28%
    17:00 +37°C° 0 mm 1 mps 705 mmHg 28%
    18:00 +35°C° 0 mm 1 mps 705 mmHg 34%
    19:00 +32°C° 0 mm 1 mps 705 mmHg 40%
    20:00 +30°C° 0 mm 1 mps 705 mmHg 46%
    21:00 +29°C° 0.1 mm 1 mps 706 mmHg 50%
    22:00 +28°C° 0.1 mm 1 mps 706 mmHg 53%
    23:00 +27°C° 0.1 mm 1 mps 706 mmHg 56%

    Tomorrow, 22 May, Tuesday

    Time Temperature Precipitation Wind Pressure Humidity
    00:00 +27°C° 0 mm 1 mps 706 mmHg 59%
    01:00 +26°C° 0 mm 1 mps 706 mmHg 61%
    02:00 +26°C° 0 mm 1 mps 706 mmHg 63%
    03:00 +25°C° 0.1 mm 1 mps 706 mmHg 67%
    04:00 +25°C° 0.1 mm 1 mps 706 mmHg 71%
    05:00 +24°C° 0.1 mm 1 mps 706 mmHg 75%
    06:00 +25°C° 0 mm 1 mps 707 mmHg 73%
    07:00 +26°C° 0 mm 2 mps 707 mmHg 71%
    08:00 +27°C° 0 mm 2 mps 708 mmHg 69%
    09:00 +29°C° 0 mm 3 mps 708 mmHg 62%
    10:00 +31°C° 0 mm 3 mps 708 mmHg 55%
    11:00 +34°C° 0 mm 4 mps 709 mmHg 47%
    12:00 +35°C° 0 mm 3 mps 708 mmHg 45%
    13:00 +36°C° 0 mm 3 mps 708 mmHg 42%
    14:00 +37°C° 0 mm 3 mps 707 mmHg 40%
    15:00 +36°C° 0 mm 2 mps 707 mmHg 44%
    16:00 +34°C° 0 mm 2 mps 706 mmHg 48%
    17:00 +32°C° 0 mm 2 mps 706 mmHg 52%
    18:00 +30°C° 0.4 mm 2 mps 706 mmHg 60%
    19:00 +29°C° 0.4 mm 2 mps 707 mmHg 68%
    20:00 +27°C° 0.4 mm 1 mps 707 mmHg 76%
    21:00 +26°C° 0.2 mm 1 mps 707 mmHg 78%
    22:00 +26°C° 0.2 mm 1 mps 708 mmHg 81%
    23:00 +25°C° 0.2 mm 1 mps 708 mmHg 83%

    Day after tomorrow, 23 May, Wednesday

    Time Temperature Precipitation Wind Pressure Humidity
    00:00 +25°C° 2.4 mm 1 mps 708 mmHg 87%
    01:00 +24°C° 2.4 mm 1 mps 708 mmHg 91%
    02:00 +24°C° 2.4 mm 1 mps 708 mmHg 95%
    03:00 +23°C° 5.6 mm 2 mps 708 mmHg 95%
    04:00 +23°C° 5.6 mm 2 mps 708 mmHg 95%
    05:00 +22°C° 5.6 mm 3 mps 708 mmHg 95%
    06:00 +23°C° 0.1 mm 2 mps 708 mmHg 93%
    07:00 +24°C° 0.1 mm 2 mps 708 mmHg 91%
    08:00 +24°C° 0.1 mm 1 mps 708 mmHg 90%
    09:00 +26°C° 0 mm 2 mps 709 mmHg 81%
    10:00 +27°C° 0 mm 2 mps 709 mmHg 73%
    11:00 +29°C° 0 mm 2 mps 709 mmHg 65%
    12:00 +30°C° 0 mm 2 mps 709 mmHg 59%
    13:00 +31°C° 0 mm 2 mps 708 mmHg 54%
    14:00 +33°C° 0 mm 1 mps 708 mmHg 49%
    15:00 +32°C° 0 mm 1 mps 707 mmHg 50%
    16:00 +32°C° 0 mm 1 mps 707 mmHg 52%
    17:00 +32°C° 0 mm 1 mps 706 mmHg 53%
    18:00 +30°C° 0 mm 1 mps 707 mmHg 58%
    19:00 +29°C° 0 mm 1 mps 707 mmHg 63%
    20:00 +27°C° 0 mm 1 mps 707 mmHg 68%
    21:00 +26°C° 0.2 mm 1 mps 707 mmHg 71%
    22:00 +26°C° 0.2 mm 1 mps 708 mmHg 74%
    23:00 +25°C° 0.2 mm 1 mps 708 mmHg 77%

    24 May, Thursday

    Time Temperature Precipitation Wind Pressure Humidity
    00:00 +25°C° 0.9 mm 1 mps 708 mmHg 82%
    01:00 +24°C° 0.9 mm 1 mps 708 mmHg 88%
    02:00 +21°C° 0.9 mm 0 mps 708 mmHg 94%
    03:00 +21°C° 0.4 mm 0 mps 707 mmHg 94%
    04:00 +21°C° 0.4 mm 0 mps 707 mmHg 94%
    05:00 +21°C° 0.4 mm 0 mps 707 mmHg 95%
    06:00 +21°C° 0.4 mm 0 mps 708 mmHg 94%
    07:00 +24°C° 0.4 mm 1 mps 709 mmHg 94%
    08:00 +24°C° 0.4 mm 1 mps 709 mmHg 93%
    09:00 +25°C° 1 mm 1 mps 709 mmHg 91%
    10:00 +26°C° 1 mm 1 mps 709 mmHg 89%
    11:00 +26°C° 1 mm 1 mps 710 mmHg 88%
    12:00 +28°C° 1 mm 1 mps 709 mmHg 81%
    13:00 +29°C° 1 mm 1 mps 708 mmHg 74%
    14:00 +30°C° 1 mm 1 mps 708 mmHg 68%
    15:00 +29°C° 1.3 mm 1 mps 707 mmHg 72%
    16:00 +28°C° 1.3 mm 1 mps 707 mmHg 77%
    17:00 +27°C° 1.3 mm 1 mps 706 mmHg 81%
    18:00 +26°C° 0.1 mm 1 mps 707 mmHg 85%
    19:00 +25°C° 0.1 mm 1 mps 707 mmHg 88%
    20:00 +24°C° 0.1 mm 1 mps 707 mmHg 92%
    21:00 +23°C° 0 mm 1 mps 707 mmHg 92%
    22:00 +23°C° 0 mm 1 mps 707 mmHg 93%
    23:00 +22°C° 0 mm 1 mps 707 mmHg 94%

    25 May, Friday

    Time Temperature Precipitation Wind Pressure Humidity
    00:00 +22°C° 0 mm 1 mps 707 mmHg 94%
    01:00 +22°C° 0 mm 1 mps 707 mmHg 94%
    02:00 +22°C° 0 mm 1 mps 706 mmHg 94%
    03:00 +20°C° 0.1 mm 0 mps 706 mmHg 94%
    04:00 +19°C° 0.1 mm 0 mps 706 mmHg 95%
    05:00 +19°C° 0.1 mm 0 mps 706 mmHg 95%
    06:00 +20°C° 0 mm 0 mps 707 mmHg 92%
    07:00 +21°C° 0 mm 0 mps 707 mmHg 89%
    08:00 +22°C° 0 mm 0 mps 708 mmHg 86%
    09:00 +27°C° 0.1 mm 1 mps 708 mmHg 76%
    10:00 +29°C° 0.1 mm 1 mps 709 mmHg 66%
    11:00 +32°C° 0.1 mm 1 mps 709 mmHg 55%
    12:00 +31°C° 1.8 mm 1 mps 708 mmHg 62%
    13:00 +30°C° 1.8 mm 1 mps 707 mmHg 69%
    14:00 +29°C° 1.8 mm 2 mps 707 mmHg 76%
    15:00 +28°C° 1.5 mm 2 mps 706 mmHg 78%
    16:00 +28°C° 1.5 mm 2 mps 706 mmHg 81%
    17:00 +27°C° 1.5 mm 2 mps 706 mmHg 84%
    18:00 +26°C° 2.2 mm 2 mps 707 mmHg 87%
    19:00 +25°C° 2.2 mm 1 mps 707 mmHg 90%
    20:00 +24°C° 2.2 mm 1 mps 708 mmHg 93%
    21:00 +23°C° 2.1 mm 1 mps 708 mmHg 94%
    22:00 +23°C° 2.1 mm 1 mps 708 mmHg 95%
    23:00 +23°C° 2.1 mm 1 mps 708 mmHg 96%

    26 May, Saturday

    Time Temperature Precipitation Wind Pressure Humidity
    00:00 +23°C° 0.7 mm 1 mps 708 mmHg 96%
    01:00 +23°C° 0.7 mm 1 mps 707 mmHg 96%
    02:00 +23°C° 0.7 mm 1 mps 707 mmHg 96%
    03:00 +22°C° 0.4 mm 1 mps 706 mmHg 96%
    04:00 +22°C° 0.4 mm 1 mps 706 mmHg 96%
    05:00 +22°C° 0.4 mm 1 mps 706 mmHg 95%
    06:00 +21°C° 0.4 mm 0 mps 707 mmHg 94%
    07:00 +21°C° 0.4 mm 0 mps 708 mmHg 93%
    08:00 +21°C° 0.4 mm 0 mps 708 mmHg 92%
    09:00 +22°C° 0.2 mm 0 mps 708 mmHg 90%
    10:00 +25°C° 0.2 mm 1 mps 708 mmHg 87%
    11:00 +26°C° 0.2 mm 1 mps 709 mmHg 85%
    12:00 +27°C° 0.1 mm 1 mps 708 mmHg 80%
    13:00 +28°C° 0.1 mm 2 mps 707 mmHg 75%
    14:00 +29°C° 0.1 mm 2 mps 706 mmHg 70%
    15:00 +29°C° 0 mm 2 mps 706 mmHg 68%
    16:00 +30°C° 0 mm 1 mps 706 mmHg 66%
    17:00 +30°C° 0 mm 1 mps 706 mmHg 64%
    18:00 +28°C° 0 mm 1 mps 706 mmHg 69%
    19:00 +27°C° 0 mm 1 mps 707 mmHg 75%
    20:00 +25°C° 0 mm 1 mps 707 mmHg 80%
    21:00 +25°C° 0 mm 1 mps 707 mmHg 82%
    22:00 +24°C° 0 mm 1 mps 707 mmHg 83%
    23:00 +24°C° 0 mm 1 mps 708 mmHg 85%
    Show more